Location: Peterborough
(44.3091°N, 78.3197°W)
Time: 16:29:45
(UTC-04:00)

Transit 4A - Pass Details

Date: 30 March 2023
Orbit: 864 x 980 km, 66.8° (Epoch: 04 June)

Event Time Altitude Azimuth Distance (km) Brightness Sun altitude
Rises 16:48:03 0° 314° (NW) 3,591 11.2 28.8°
Reaches altitude 10° 16:51:21 10° 297° (WNW) 2,664 10.9 28.3°
Maximum altitude 16:55:22 18° 256° (WSW) 2,144 12.0 27.6°
Drops below altitude 10° 16:59:27 10° 215° (SW) 2,697 11.4 26.9°
Sets 17:02:51 0° 197° (SSW) 3,652 11.5 26.4°
